00:00:29,445B45E0,0,0,949,255,25,143
00:01:01,445B49E0,0,0,945,255,27,144
00:01:33,445B4DE0,0,0,943,255,35,145
00:02:05,445B51E0,0,0,939,255,28,146
00:02:37,445B55E0,0,0,936,255,31,146
00:03:09,445B59E0,0,0,932,255,24,145
00:03:41,445B5DE0,0,0,929,255,20,144
00:03:57,445B5FE0,0,0,927,255,29,143
00:04:13,445B61E0,0,0,926,255,34,142
00:04:45,445B65E0,0,0,922,255,32,142
00:05:17,445B69E0,0,0,917,255,37,141
00:05:49,445B6DE0,0,0,914,255,33,142
00:06:21,445B71E0,0,0,909,255,38,143
00:06:53,445B75E0,0,0,905,255,22,144
00:07:25,445B79E0,0,0,902,255,37,145
00:07:57,445B7DE0,0,0,898,255,36,146
00:08:13,445B7FE0,0,0,896,255,31,146
00:08:29,445B81E0,0,0,898,255,29,146
00:09:01,445B85E0,0,0,907,255,29,145
00:09:33,445B89E0,0,0,907,255,33,144
00:10:05,445B8DE0,0,0,880,255,26,143
00:10:37,445B91E0,0,0,876,255,46,142
00:11:09,445B95E0,0,0,873,255,42,141
00:11:41,445B99E0,0,0,870,255,36,142
00:12:13,445B9DE0,0,0,867,255,32,143
00:12:29,445B9FE0,0,0,864,255,34,143
00:12:45,445BA1E0,0,0,862,255,37,144
00:13:17,445BA5E0,0,0,861,255,36,144
00:13:49,445BA9E0,0,0,858,255,52,145
00:14:21,445BADE0,0,0,855,255,31,146
00:14:53,445BB1E0,0,0,852,255,41,146
00:15:25,445BB5E0,0,0,849,255,35,144
00:15:57,445BB9E0,0,0,846,255,23,143
00:16:29,445BBDE0,0,0,843,255,44,142
00:16:45,445BBFE0,0,0,841,255,32,141
00:17:01,445BC1E0,0,0,839,255,47,141
00:17:33,445BC5E0,0,0,836,255,28,142
00:18:05,445BC9E0,0,0,832,255,40,143
00:18:37,445BCDE0,0,0,829,255,33,144
00:19:09,445BD1E0,0,0,826,255,33,144
00:19:41,445BD5E0,0,0,822,255,36,145
00:20:13,445BD9E0,0,0,819,255,43,146
00:20:45,445BDDE0,0,0,816,255,54,146
00:21:01,445BDFE0,0,0,814,255,39,145
00:21:17,445BE1E0,0,0,813,255,32,145
00:21:49,445BE5E0,0,0,810,255,27,144
00:22:21,445BE9E0,0,0,808,255,35,142
00:22:53,445BEDE0,0,0,804,255,46,141
00:23:25,445BF1E0,0,0,801,255,33,141
00:23:57,445BF5E0,0,0,798,255,37,142
00:24:29,445BF9E0,0,0,794,255,29,143
00:25:01,445BFDE0,0,0,792,255,28,144
00:25:17,445BFFE0,0,0,791,255,64,145
00:25:33,445C01E0,0,0,789,255,31,145
00:26:05,445C05E0,0,0,784,255,54,145
00:26:37,445C09E0,0,0,781,255,43,146
00:27:09,445C0DE0,0,0,778,255,35,145
00:27:41,445C11E0,0,0,775,255,58,144
00:28:13,445C15E0,0,0,772,255,57,143
00:28:45,445C19E0,0,0,770,255,52,142
00:29:17,445C1DE0,0,0,765,255,57,141
00:29:33,445C1FE0,0,0,764,255,54,141
00:29:49,445C21E0,0,0,763,255,47,142
00:30:21,445C25E0,0,0,760,255,57,143
00:30:53,445C29E0,0,0,757,255,38,144
00:31:25,445C2DE0,0,0,753,255,65,145
00:31:57,445C31E0,0,0,750,255,61,145
00:32:29,445C35E0,0,0,746,255,45,146
00:33:01,445C39E0,0,0,743,255,60,146
00:33:33,445C3DE0,0,0,740,255,44,144
00:33:49,445C3FE0,0,0,739,255,55,144
00:34:05,445C41E0,0,0,737,255,81,143
00:34:37,445C45E0,0,0,733,255,40,142
00:35:09,445C49E0,0,0,730,255,68,141
00:35:41,445C4DE0,0,0,726,255,41,141
00:36:13,445C51E0,0,0,724,255,53,142
00:36:45,445C55E0,0,0,720,255,60,144
00:37:17,445C59E0,0,0,717,255,53,145
00:37:49,445C5DE0,0,0,713,255,60,145
00:38:05,445C5FE0,0,0,711,255,59,146
00:38:21,445C61E0,0,0,709,255,66,146
00:38:53,445C65E0,0,0,706,255,53,146
00:39:25,445C69E0,0,0,703,255,72,145
00:39:57,445C6DE0,0,0,700,255,76,144
00:40:29,445C71E0,0,0,698,255,56,143
00:41:01,445C75E0,0,0,698,255,75,142
00:41:33,445C79E0,0,0,696,255,64,141
00:42:00,445C7D40,0,0,695,255,51,142
00:42:02,445C7D80,0,0,695,255,62,142
00:42:04,445C7DC0,0,0,695,255,84,142
00:42:05,445C7DE0,0,0,694,255,74,142
00:42:06,445C7E00,0,0,694,255,62,142
00:42:08,445C7E40,0,0,694,255,71,142
00:42:10,445C7E80,0,0,694,255,44,142
00:42:12,445C7EC0,0,0,693,255,45,142
00:42:14,445C7F00,0,0,693,255,62,142
00:42:16,445C7F40,0,0,693,255,47,142
00:42:18,445C7F80,0,0,693,255,72,142
00:42:20,445C7FC0,0,0,694,255,73,142
00:42:21,445C7FE0,0,0,693,255,58,142
00:42:22,445C8000,0,0,693,255,53,143
00:42:24,445C8040,0,0,693,255,77,143
00:42:26,445C8080,0,0,693,255,73,143
00:42:28,445C80C0,0,0,693,255,84,143
00:42:30,445C8100,0,0,692,255,77,143
00:42:32,445C8140,0,0,692,255,64,143
00:42:34,445C8180,0,0,692,255,74,143
00:42:36,445C81C0,0,0,692,255,79,143
00:42:37,445C81E0,0,0,692,255,78,143
00:42:38,445C8200,0,0,692,255,74,143
00:42:40,445C8240,0,0,692,255,52,143
00:42:42,445C8280,0,0,692,255,59,143
00:42:44,445C82C0,0,0,692,255,47,143
00:42:46,445C8300,0,0,692,255,67,144
00:42:48,445C8340,0,0,692,255,60,144
00:42:50,445C8380,0,0,692,255,69,144
00:42:52,445C83C0,0,0,692,255,70,144
00:42:54,445C8400,0,0,691,255,70,144
00:42:56,445C8440,0,0,691,255,76,144
00:42:58,445C8480,0,0,691,255,52,144
00:43:00,445C84C0,0,0,691,255,64,144
00:43:02,445C8500,0,0,691,255,53,144
00:43:04,445C8540,0,0,691,255,69,144
00:43:06,445C8580,0,0,691,255,68,144
00:43:08,445C85C0,0,0,691,255,77,144
00:43:09,445C85E0,0,0,691,255,75,144
00:43:10,445C8600,0,0,691,255,63,144
00:43:12,445C8640,0,0,691,255,86,144
00:43:14,445C8680,0,0,691,255,87,144
00:43:16,445C86C0,0,0,690,255,48,144
00:43:18,445C8700,0,0,690,255,84,145
00:43:20,445C8740,0,0,690,255,76,145
00:43:22,445C8780,0,0,690,255,79,145
00:43:24,445C87C0,0,0,690,255,71,145
00:43:26,445C8800,0,0,690,255,60,145
00:43:28,445C8840,0,0,689,255,65,145
00:43:30,445C8880,0,0,689,255,77,145
00:43:32,445C88C0,0,0,689,255,41,145
00:43:34,445C8900,0,0,689,255,53,145
00:43:36,445C8940,0,0,689,255,63,145
00:43:38,445C8980,0,0,689,255,94,145
00:43:40,445C89C0,0,0,688,255,74,145
00:43:41,445C89E0,0,0,687,255,57,145
00:43:42,445C8A00,0,0,687,255,67,145
00:43:44,445C8A40,0,0,686,255,62,145
00:43:46,445C8A80,0,0,685,255,62,145
00:43:48,445C8AC0,0,0,685,255,57,145
00:43:50,445C8B00,0,0,685,255,59,145
00:43:52,445C8B40,0,0,684,255,69,145
00:43:54,445C8B80,0,0,684,255,87,145
00:43:56,445C8BC0,0,0,684,255,72,145
00:43:58,445C8C00,0,0,683,255,74,145
00:44:00,445C8C40,0,0,683,255,58,145
00:44:02,445C8C80,0,0,683,255,65,146
00:44:04,445C8CC0,0,0,683,255,45,146
00:44:06,445C8D00,0,0,683,255,88,146
00:44:08,445C8D40,0,0,683,255,67,146
00:44:10,445C8D80,0,0,682,255,63,146
00:44:12,445C8DC0,0,0,682,255,48,146
00:44:13,445C8DE0,0,0,682,255,79,146
00:44:14,445C8E00,0,0,682,255,58,146
00:44:16,445C8E40,0,0,682,255,63,146
00:44:18,445C8E80,0,0,681,255,66,146
00:44:20,445C8EC0,0,0,682,255,59,146
00:44:22,445C8F00,0,0,681,255,76,146
00:44:24,445C8F40,0,0,681,255,76,146
00:44:26,445C8F80,0,0,681,255,77,146
00:44:28,445C8FC0,0,0,681,255,74,146
00:44:30,445C9000,0,0,681,255,92,146
00:44:32,445C9040,0,0,681,255,72,146
00:44:34,445C9080,0,0,681,255,83,146
00:44:36,445C90C0,0,0,681,255,49,146
00:44:38,445C9100,0,0,681,255,63,146
00:44:40,445C9140,0,0,681,255,65,146
00:44:42,445C9180,0,0,681,255,56,146
00:44:44,445C91C0,0,0,681,255,57,146
00:44:45,445C91E0,0,0,681,255,74,146
00:44:46,445C9200,0,0,681,255,65,146
00:44:48,445C9240,0,0,681,255,69,146
00:44:50,445C9280,0,0,680,255,67,146
00:44:52,445C92C0,0,0,680,255,58,146
00:44:54,445C9300,0,0,680,255,57,146
00:44:56,445C9340,0,0,680,255,63,146
00:44:58,445C9380,0,0,680,255,98,146
00:45:00,445C93C0,0,0,680,255,77,146
00:45:02,445C9400,0,0,680,255,79,145
00:45:04,445C9440,0,0,679,255,68,145
00:45:06,445C9480,0,0,680,255,50,145
00:45:08,445C94C0,0,0,679,255,74,145
00:45:10,445C9500,0,0,680,255,92,145
00:45:12,445C9540,0,0,679,255,69,145
00:45:14,445C9580,0,0,679,255,45,145
00:45:16,445C95C0,0,0,679,255,70,145
00:45:17,445C95E0,0,0,679,255,71,145
00:45:18,445C9600,0,0,678,255,60,145
00:45:20,445C9640,0,0,678,255,76,145
00:45:22,445C9680,0,0,678,255,95,145
00:45:24,445C96C0,0,0,678,255,84,145
00:45:26,445C9700,0,0,678,255,44,144
00:45:28,445C9740,0,0,678,255,86,144
00:45:30,445C9780,0,0,678,255,95,144
00:45:32,445C97C0,0,0,677,255,96,144
00:45:34,445C9800,0,0,677,255,68,144
00:45:36,445C9840,0,0,677,255,66,144
00:45:38,445C9880,0,0,677,255,74,144
00:45:40,445C98C0,0,0,676,255,79,144
00:45:42,445C9900,0,0,677,255,88,144
00:45:44,445C9940,0,0,676,255,64,144
00:45:46,445C9980,0,0,676,255,61,144
00:45:48,445C99C0,0,0,675,255,67,144
00:45:49,445C99E0,0,0,675,255,65,144
00:45:50,445C9A00,0,0,675,255,69,144
00:45:52,445C9A40,0,0,675,255,87,144
00:45:54,445C9A80,0,0,675,255,91,144
00:45:56,445C9AC0,0,0,675,255,75,144
00:45:58,445C9B00,0,0,675,255,88,144
00:46:00,445C9B40,0,0,675,255,73,144
00:46:02,445C9B80,0,0,674,255,80,144
00:46:04,445C9BC0,0,0,674,255,87,143
00:46:06,445C9C00,0,0,674,255,78,143
00:46:08,445C9C40,0,0,674,255,77,143
00:46:10,445C9C80,0,0,674,255,76,143
00:46:12,445C9CC0,0,0,674,255,90,143
00:46:14,445C9D00,0,0,673,255,70,143
00:46:16,445C9D40,0,0,673,255,68,143
00:46:18,445C9D80,0,0,673,255,65,143
00:46:20,445C9DC0,0,0,673,255,80,143
00:46:21,445C9DE0,0,0,673,255,84,143
00:46:22,445C9E00,0,0,673,255,74,143
00:46:24,445C9E40,0,0,673,255,75,143
00:46:26,445C9E80,0,0,672,255,92,143
00:46:28,445C9EC0,0,0,672,255,91,143
00:46:30,445C9F00,0,0,672,255,65,143
00:46:32,445C9F40,0,0,672,255,68,143
00:46:34,445C9F80,0,0,671,255,95,143
00:46:36,445C9FC0,0,0,671,255,86,142
00:46:37,445C9FE0,0,0,671,255,79,142
00:46:38,445CA000,0,0,671,255,79,142
00:46:40,445CA040,0,0,671,255,78,142
00:46:42,445CA080,0,0,671,255,72,142
00:46:44,445CA0C0,0,0,670,255,79,142
00:46:46,445CA100,0,0,670,255,92,142
00:46:48,445CA140,0,0,670,255,93,142
00:46:50,445CA180,0,0,670,255,88,142
00:46:52,445CA1C0,0,0,669,255,86,142
00:46:53,445CA1E0,0,0,669,255,68,142
00:46:54,445CA200,0,0,669,255,67,142
00:46:56,445CA240,0,0,669,255,76,142
00:46:58,445CA280,0,0,668,255,80,142
00:47:00,445CA2C0,0,0,668,255,76,142
00:47:02,445CA300,0,0,667,255,100,142
00:47:04,445CA340,0,0,667,255,75,142
00:47:06,445CA380,0,0,666,255,66,142
00:47:08,445CA3C0,0,0,666,255,72,141
00:47:10,445CA400,0,0,665,255,68,141
00:47:12,445CA440,0,0,665,255,50,141
00:47:14,445CA480,0,0,665,255,71,141
00:47:16,445CA4C0,0,0,665,255,68,141
00:47:18,445CA500,0,0,665,255,64,141
00:47:20,445CA540,0,0,665,255,55,141
00:47:22,445CA580,0,0,664,255,52,141
00:47:24,445CA5C0,0,0,664,255,59,141
00:47:25,445CA5E0,0,0,664,255,55,141
00:47:26,445CA600,0,0,664,255,64,141
00:47:28,445CA640,0,0,664,255,87,141
00:47:30,445CA680,0,0,664,255,69,141
00:47:32,445CA6C0,0,0,663,255,60,141
00:47:34,445CA700,0,0,663,255,84,141
00:47:36,445CA740,0,0,663,255,92,141
00:47:38,445CA780,0,0,663,255,86,141
00:47:40,445CA7C0,0,0,662,255,94,141
00:47:42,445CA800,0,0,661,255,90,141
00:47:44,445CA840,0,0,660,255,57,141
00:47:46,445CA880,0,0,660,255,77,141
00:47:48,445CA8C0,0,0,660,255,61,141
00:47:50,445CA900,0,0,660,255,91,141
00:47:52,445CA940,0,0,659,255,69,141
00:47:54,445CA980,0,0,659,255,85,142
00:47:56,445CA9C0,0,0,659,255,78,142
00:47:57,445CA9E0,0,0,659,255,78,142
00:47:58,445CAA00,0,0,659,255,83,142
00:48:00,445CAA40,0,0,658,255,70,142
00:48:02,445CAA80,0,0,658,255,72,142
00:48:04,445CAAC0,0,0,658,255,55,142
00:48:06,445CAB00,0,0,658,255,61,142
00:48:08,445CAB40,0,0,658,255,71,142
00:48:10,445CAB80,0,0,658,255,75,142
00:48:12,445CABC0,0,0,657,255,77,142
00:48:14,445CAC00,0,0,657,255,51,142
00:48:16,445CAC40,0,0,657,255,70,142
00:48:18,445CAC80,0,0,657,255,94,142
00:48:20,445CACC0,0,0,656,255,79,142
00:48:22,445CAD00,0,0,656,255,80,142
00:48:24,445CAD40,0,0,656,255,81,142
00:48:26,445CAD80,0,0,655,255,71,143
00:48:28,445CADC0,0,0,655,255,95,143
00:48:29,445CADE0,0,0,655,255,74,143
00:48:30,445CAE00,0,0,655,255,87,143
00:48:32,445CAE40,0,0,655,255,76,143
00:48:34,445CAE80,0,0,655,255,50,143
00:48:36,445CAEC0,0,0,654,255,77,143
00:48:38,445CAF00,0,0,654,255,65,143
00:48:40,445CAF40,0,0,654,255,54,143
00:48:42,445CAF80,0,0,654,255,91,143
00:48:44,445CAFC0,0,0,654,255,73,143
00:48:46,445CB000,0,0,653,255,79,143
00:48:48,445CB040,0,0,653,255,80,143
00:48:50,445CB080,0,0,652,255,85,143
00:48:52,445CB0C0,0,0,652,255,83,143
00:48:54,445CB100,0,0,652,255,94,144
00:48:56,445CB140,0,0,652,255,93,144
00:48:58,445CB180,0,0,652,255,81,144
00:49:00,445CB1C0,0,0,651,255,71,144
00:49:01,445CB1E0,0,0,652,255,66,144
00:49:02,445CB200,0,0,652,255,68,144
00:49:04,445CB240,0,0,651,255,56,144
00:49:06,445CB280,0,0,651,255,79,144
00:49:08,445CB2C0,0,0,651,255,76,144
00:49:10,445CB300,0,0,651,255,66,144
00:49:12,445CB340,0,0,651,255,62,144
00:49:14,445CB380,0,0,650,255,71,144
00:49:16,445CB3C0,0,0,650,255,73,144
00:49:18,445CB400,0,0,650,255,86,144
00:49:20,445CB440,0,0,649,255,91,144
00:49:22,445CB480,0,0,649,255,92,145
00:49:24,445CB4C0,0,0,649,255,97,145
00:49:26,445CB500,0,0,649,255,73,145
00:49:28,445CB540,0,0,648,255,82,145
00:49:30,445CB580,0,0,648,255,60,145
00:49:32,445CB5C0,0,0,648,255,79,145
00:49:33,445CB5E0,0,0,647,255,88,145
00:49:34,445CB600,0,0,647,255,63,145
00:49:36,445CB640,0,0,647,255,75,145
00:49:38,445CB680,0,0,647,255,74,145
00:49:40,445CB6C0,0,0,647,255,65,145
00:49:42,445CB700,0,0,647,255,61,145
00:49:44,445CB740,0,0,646,255,95,145
00:49:46,445CB780,0,0,646,255,105,145
00:49:48,445CB7C0,0,0,646,255,91,145
00:49:50,445CB800,0,0,646,255,87,145
00:49:52,445CB840,0,0,646,255,64,145
00:49:54,445CB880,0,0,646,255,82,145
00:49:56,445CB8C0,0,0,645,255,80,145
00:49:58,445CB900,0,0,645,255,78,145
00:50:00,445CB940,0,0,645,255,92,146
00:50:02,445CB980,0,0,645,255,94,146
00:50:04,445CB9C0,0,0,645,255,93,146
00:50:05,445CB9E0,0,0,644,255,105,146
00:50:06,445CBA00,0,0,644,255,75,146
00:50:08,445CBA40,0,0,644,255,75,146
00:50:10,445CBA80,0,0,644,255,88,146
00:50:12,445CBAC0,0,0,644,255,73,146
00:50:14,445CBB00,0,0,643,255,79,146
00:50:16,445CBB40,0,0,643,255,63,146
00:50:18,445CBB80,0,0,643,255,69,146
00:50:20,445CBBC0,0,0,643,255,75,146
00:50:22,445CBC00,0,0,642,255,77,146
00:50:24,445CBC40,0,0,642,255,54,146
00:50:26,445CBC80,0,0,642,255,77,146
00:50:28,445CBCC0,0,0,642,255,81,146
00:50:30,445CBD00,0,0,641,255,80,146
00:50:32,445CBD40,0,0,641,255,58,146
00:50:34,445CBD80,0,0,641,255,65,146
00:50:36,445CBDC0,0,0,640,255,59,146
00:50:37,445CBDE0,0,0,640,255,93,146
00:50:38,445CBE00,0,0,640,255,65,146
00:50:40,445CBE40,0,0,640,255,99,146
00:50:42,445CBE80,0,0,640,255,86,146
00:50:44,445CBEC0,0,0,640,255,72,146
00:50:46,445CBF00,0,0,640,255,86,146
00:50:48,445CBF40,0,0,639,255,66,146
00:50:50,445CBF80,0,0,639,255,76,146
00:50:52,445CBFC0,0,0,639,255,74,146
00:50:53,445CBFE0,0,0,639,255,103,146
00:50:54,445CC000,0,0,639,255,89,146
00:50:56,445CC040,0,0,638,255,87,146
00:50:58,445CC080,0,0,638,255,81,146
00:51:00,445CC0C0,0,0,638,255,48,146
00:51:02,445CC100,0,0,638,255,56,146
00:51:04,445CC140,0,0,637,255,86,145
00:51:06,445CC180,0,0,637,255,98,145
00:51:08,445CC1C0,0,0,637,255,66,145
00:51:09,445CC1E0,0,0,637,255,94,145
00:51:10,445CC200,0,0,637,255,97,145
00:51:12,445CC240,0,0,636,255,87,145
00:51:14,445CC280,0,0,636,255,67,145
00:51:16,445CC2C0,0,0,636,255,76,145
00:51:18,445CC300,0,0,636,255,84,145
00:51:20,445CC340,0,0,636,255,87,145
00:51:22,445CC380,0,0,636,255,94,145
00:51:24,445CC3C0,0,0,636,255,74,145
00:51:26,445CC400,0,0,635,255,72,145
00:51:28,445CC440,0,0,635,255,100,144
00:51:30,445CC480,0,0,635,255,101,144
00:51:32,445CC4C0,0,0,635,255,58,144
00:51:34,445CC500,0,0,635,255,66,144
00:51:36,445CC540,0,0,635,255,99,144
00:51:38,445CC580,0,0,634,255,94,144
00:51:40,445CC5C0,0,0,634,255,83,144
00:51:41,445CC5E0,0,0,634,255,73,144
00:51:42,445CC600,0,0,634,255,77,144
00:51:44,445CC640,0,0,634,255,84,144
00:51:46,445CC680,0,0,634,255,77,144
00:51:48,445CC6C0,0,0,633,255,53,144
00:51:50,445CC700,0,0,633,255,73,144
00:51:52,445CC740,0,0,633,255,79,144
00:51:54,445CC780,0,0,633,255,87,143
00:51:56,445CC7C0,0,0,633,255,98,143
00:51:58,445CC800,0,0,633,255,87,143
00:52:00,445CC840,0,0,632,255,99,143
00:52:02,445CC880,0,0,632,255,96,143
00:52:04,445CC8C0,0,0,632,255,96,143
00:52:06,445CC900,0,0,632,255,67,143
00:52:08,445CC940,0,0,632,255,68,143
00:52:10,445CC980,0,0,632,255,82,143
00:52:12,445CC9C0,0,0,632,255,76,143
00:52:13,445CC9E0,0,0,632,255,80,143
00:52:14,445CCA00,0,0,631,255,87,143
00:52:16,445CCA40,0,0,632,255,90,143
00:52:18,445CCA80,0,0,631,255,63,143
00:52:20,445CCAC0,0,0,631,255,62,143
00:52:22,445CCB00,0,0,631,255,87,142
00:52:24,445CCB40,0,0,631,255,87,142
00:52:26,445CCB80,0,0,631,255,80,142
00:52:28,445CCBC0,0,0,631,255,91,142
00:52:30,445CCC00,0,0,630,255,97,142
00:52:32,445CCC40,0,0,630,255,76,142
00:52:34,445CCC80,0,0,630,255,72,142
00:52:36,445CCCC0,0,0,630,255,81,142
00:52:38,445CCD00,0,0,630,255,74,142
00:52:40,445CCD40,0,0,629,255,75,142
00:52:42,445CCD80,0,0,629,255,87,142
00:52:44,445CCDC0,0,0,629,255,102,142
00:52:45,445CCDE0,0,0,629,255,94,142
00:52:46,445CCE00,0,0,629,255,97,142
00:52:48,445CCE40,0,0,629,255,81,142
00:52:50,445CCE80,0,0,629,255,89,142
00:52:52,445CCEC0,0,0,628,255,79,142
00:52:54,445CCF00,0,0,628,255,84,142
00:52:56,445CCF40,0,0,628,255,89,142
00:52:58,445CCF80,0,0,628,255,95,142
00:53:00,445CCFC0,0,0,627,255,100,142
00:53:02,445CD000,0,0,627,255,93,142
00:53:04,445CD040,0,0,627,255,96,142
00:53:06,445CD080,0,0,626,255,75,142
00:53:08,445CD0C0,0,0,627,255,74,141
00:53:10,445CD100,0,0,627,255,70,141
00:53:12,445CD140,0,0,626,255,100,141
00:53:14,445CD180,0,0,626,255,85,141
00:53:16,445CD1C0,0,0,626,255,86,141
00:53:17,445CD1E0,0,0,626,255,98,141
00:53:18,445CD200,0,0,626,255,95,141
00:53:20,445CD240,0,0,626,255,78,141
00:53:22,445CD280,0,0,626,255,66,141
00:53:24,445CD2C0,0,0,625,255,64,141
00:53:26,445CD300,0,0,625,255,77,141
00:53:28,445CD340,0,0,625,255,91,141
00:53:30,445CD380,0,0,625,255,101,141
00:53:32,445CD3C0,0,0,624,255,98,141
00:53:34,445CD400,0,0,624,255,84,141
00:53:36,445CD440,0,0,624,255,86,141
00:53:38,445CD480,0,0,624,255,81,141
00:53:40,445CD4C0,0,0,624,255,94,141
00:53:42,445CD500,0,0,624,255,98,142
00:53:44,445CD540,0,0,623,255,68,142
00:53:46,445CD580,0,0,624,255,94,142
00:53:48,445CD5C0,0,0,623,255,82,142
00:53:49,445CD5E0,0,0,623,255,75,142
00:53:50,445CD600,0,0,623,255,96,142
00:53:52,445CD640,0,0,623,255,97,142
00:53:54,445CD680,0,0,623,255,106,142
00:53:56,445CD6C0,0,0,623,255,104,142
00:53:58,445CD700,0,0,622,255,82,142
00:54:00,445CD740,0,0,622,255,73,142
00:54:02,445CD780,0,0,622,255,62,142
00:54:04,445CD7C0,0,0,622,255,49,142
00:54:06,445CD800,0,0,621,255,76,142
00:54:08,445CD840,0,0,621,255,81,142
00:54:10,445CD880,0,0,621,255,77,142
00:54:12,445CD8C0,0,0,621,255,71,143
00:54:14,445CD900,0,0,620,255,63,143
00:54:16,445CD940,0,0,620,255,82,143
00:54:18,445CD980,0,0,620,255,76,143
00:54:20,445CD9C0,0,0,620,255,99,143
00:54:21,445CD9E0,0,0,620,255,95,143
00:54:22,445CDA00,0,0,620,255,80,143
00:54:24,445CDA40,0,0,619,255,101,143
00:54:26,445CDA80,0,0,619,255,99,143
00:54:28,445CDAC0,0,0,619,255,66,143
00:54:30,445CDB00,0,0,618,255,76,143
00:54:32,445CDB40,0,0,618,255,76,143
00:54:34,445CDB80,0,0,618,255,78,143
00:54:36,445CDBC0,0,0,618,255,97,143
00:54:38,445CDC00,0,0,617,255,93,143
00:54:40,445CDC40,0,0,617,255,87,143
00:54:42,445CDC80,0,0,617,255,78,143
00:54:44,445CDCC0,0,0,617,255,90,143
00:54:46,445CDD00,0,0,617,255,94,144
00:54:48,445CDD40,0,0,616,255,82,144
00:54:50,445CDD80,0,0,616,255,99,144
00:54:52,445CDDC0,0,0,615,255,93,144
00:54:53,445CDDE0,0,0,615,255,96,144
00:54:54,445CDE00,0,0,615,255,86,144
00:54:56,445CDE40,0,0,615,255,93,144
00:54:58,445CDE80,0,0,615,255,85,144
00:55:00,445CDEC0,0,0,614,255,64,144
00:55:02,445CDF00,0,0,614,255,92,144
00:55:04,445CDF40,0,0,614,255,93,144
00:55:06,445CDF80,0,0,614,255,96,144
00:55:08,445CDFC0,0,0,614,255,97,144
00:55:09,445CDFE0,0,0,614,255,81,144
00:55:10,445CE000,0,0,614,255,79,144
00:55:12,445CE040,0,0,614,255,78,144
00:55:14,445CE080,0,0,614,255,80,144
00:55:16,445CE0C0,0,0,613,255,82,144
00:55:18,445CE100,0,0,614,255,97,144
00:55:20,445CE140,0,0,614,255,97,144
00:55:22,445CE180,0,0,613,255,61,144
00:55:24,445CE1C0,0,0,613,255,84,144
00:55:25,445CE1E0,0,0,613,255,99,144
00:55:26,445CE200,0,0,613,255,96,144
00:55:28,445CE240,0,0,613,255,103,145
00:55:30,445CE280,0,0,612,255,96,145
00:55:32,445CE2C0,0,0,612,255,93,145
00:55:34,445CE300,0,0,612,255,82,145
00:55:36,445CE340,0,0,611,255,92,145
00:55:38,445CE380,0,0,611,255,78,145
00:55:40,445CE3C0,0,0,611,255,89,145
00:55:42,445CE400,0,0,611,255,78,145
00:55:44,445CE440,0,0,610,255,74,145
00:55:46,445CE480,0,0,610,255,77,145
00:55:48,445CE4C0,0,0,610,255,92,145
00:55:50,445CE500,0,0,610,255,93,145
00:55:52,445CE540,0,0,610,255,75,145
00:55:54,445CE580,0,0,610,255,87,145
00:55:56,445CE5C0,0,0,609,255,94,145
00:55:57,445CE5E0,0,0,610,255,95,145
00:55:58,445CE600,0,0,609,255,101,145
00:56:00,445CE640,0,0,609,255,100,146
00:56:02,445CE680,0,0,609,255,89,146
00:56:04,445CE6C0,0,0,609,255,98,146
00:56:06,445CE700,0,0,609,255,102,146
00:56:08,445CE740,0,0,608,255,100,146
00:56:10,445CE780,0,0,608,255,91,146
00:56:12,445CE7C0,0,0,608,255,94,146
00:56:14,445CE800,0,0,608,255,98,146
00:56:16,445CE840,0,0,608,255,108,146
00:56:18,445CE880,0,0,607,255,100,146
00:56:20,445CE8C0,0,0,607,255,104,146
00:56:22,445CE900,0,0,607,255,94,146
00:56:24,445CE940,0,0,607,255,90,146
00:56:26,445CE980,0,0,607,255,97,146
00:56:28,445CE9C0,0,0,606,255,101,146
00:56:29,445CE9E0,0,0,606,255,100,146
00:56:30,445CEA00,0,0,606,255,104,146
00:56:32,445CEA40,0,0,606,255,115,146
00:56:34,445CEA80,0,0,605,255,96,146
00:56:36,445CEAC0,0,0,605,255,88,146
00:56:38,445CEB00,0,0,605,255,85,146
00:56:40,445CEB40,0,0,605,255,106,146
00:56:42,445CEB80,0,0,605,255,105,146
00:56:44,445CEBC0,0,0,605,255,76,146
00:56:46,445CEC00,0,0,604,255,79,146
00:56:48,445CEC40,0,0,604,255,99,146
00:56:50,445CEC80,0,0,603,255,87,146
00:56:52,445CECC0,0,0,603,255,98,146
00:56:54,445CED00,0,0,603,255,74,146
00:56:56,445CED40,0,0,603,255,88,146
00:56:58,445CED80,0,0,603,255,81,146
00:57:00,445CEDC0,0,0,603,255,100,146
00:57:01,445CEDE0,0,0,603,255,109,146
00:57:02,445CEE00,0,0,603,255,100,146
00:57:04,445CEE40,0,0,602,255,95,146
00:57:06,445CEE80,0,0,602,255,102,145
00:57:08,445CEEC0,0,0,602,255,79,145
00:57:10,445CEF00,0,0,601,255,81,145
00:57:12,445CEF40,0,0,601,255,75,145
00:57:14,445CEF80,0,0,601,255,102,145
00:57:16,445CEFC0,0,0,601,255,97,145
00:57:18,445CF000,0,0,601,255,73,145
00:57:20,445CF040,0,0,600,255,90,145
00:57:22,445CF080,0,0,600,255,73,145
00:57:24,445CF0C0,0,0,600,255,93,145
00:57:26,445CF100,0,0,599,255,88,145
00:57:28,445CF140,0,0,599,255,98,145
00:57:30,445CF180,0,0,599,255,99,145
00:57:32,445CF1C0,0,0,599,255,99,144
00:57:33,445CF1E0,0,0,599,255,93,144
00:57:34,445CF200,0,0,598,255,101,144
00:57:36,445CF240,0,0,598,255,102,144
00:57:38,445CF280,0,0,598,255,69,144
00:57:40,445CF2C0,0,0,598,255,87,144
00:57:42,445CF300,0,0,598,255,103,144
00:57:44,445CF340,0,0,598,255,96,144
00:57:46,445CF380,0,0,597,255,101,144
00:57:48,445CF3C0,0,0,597,255,99,144
00:57:50,445CF400,0,0,597,255,98,144
00:57:52,445CF440,0,0,597,255,84,144
00:57:54,445CF480,0,0,596,255,91,144
00:57:56,445CF4C0,0,0,597,255,84,143
00:57:58,445CF500,0,0,596,255,77,143
00:58:00,445CF540,0,0,596,255,86,143
00:58:02,445CF580,0,0,596,255,100,143
00:58:04,445CF5C0,0,0,595,255,95,143
00:58:05,445CF5E0,0,0,595,255,100,143
00:58:06,445CF600,0,0,595,255,100,143
00:58:08,445CF640,0,0,594,255,100,143
00:58:10,445CF680,0,0,594,255,102,143
00:58:12,445CF6C0,0,0,594,255,100,143
00:58:14,445CF700,0,0,594,255,86,143
00:58:16,445CF740,0,0,594,255,96,143
00:58:18,445CF780,0,0,594,255,82,143
00:58:20,445CF7C0,0,0,594,255,98,143
00:58:22,445CF800,0,0,595,255,77,143
00:58:24,445CF840,0,0,594,255,75,142
00:58:26,445CF880,0,0,595,255,93,142
00:58:28,445CF8C0,0,0,595,255,101,142
00:58:30,445CF900,0,0,595,255,107,142
00:58:32,445CF940,0,0,595,255,102,142
00:58:34,445CF980,0,0,594,255,91,142
00:58:36,445CF9C0,0,0,594,255,91,142
00:58:37,445CF9E0,0,0,593,255,71,142
00:58:38,445CFA00,0,0,593,255,101,142
00:58:40,445CFA40,0,0,593,255,92,142
00:58:42,445CFA80,0,0,592,255,80,142
00:58:44,445CFAC0,0,0,592,255,100,142
00:58:46,445CFB00,0,0,592,255,95,142
00:58:48,445CFB40,0,0,591,255,90,142
00:58:50,445CFB80,0,0,591,255,95,142
00:58:52,445CFBC0,0,0,590,255,93,142